Location: Brachbach
(49.1847°N, 9.7240°E)
Time: 01:25:00
(UTC+00:00)

ARIANE 6 FM1 Upper Stage - Pass Details

Date: 02 February 2026
Orbit: 522 x 609 km, 62.0° (Epoch: 13 February)

Event Time Altitude Azimuth Distance (km) Brightness Sun altitude
Rises 19:15:25 0° 306° (NW) 2,672 7.0 -28.9°
Reaches altitude 10° 19:18:41 10° 335° (NNW) 1,773 5.6 -29.4°
Enters shadow 19:19:08 11° 341° (NNW) 1,695 5.4 -29.5°
